Weather History for Tucson Davis Monthan, AZ

Change the Weather History Date:

Wednesday, February 5, 2014

  Actual Average Record
Temperature  
Mean Temperature 49 °F -  
Max Temperature 60 °F 66 °F 85 °F (1963)
Min Temperature 38 °F 41 °F 20 °F (1955)
Degree Days  
Heating Degree Days 16    
Moisture  
Dew Point 27 °F    
Average Humidity 42    
Maximum Humidity 63    
Minimum Humidity 27    
Precipitation  
Precipitation 0.00 in - - ()
Sea Level Pressure  
Sea Level Pressure 29.97 in    
Wind  
Wind Speed 7 mph (NNW)    
Max Wind Speed 14 mph    
Max Gust Speed -    
Visibility 10 miles    
Events      
Averages and records for this station are not official NWS values.
T = Trace of Precipitation, MM = Missing Value Source: NWS Daily Summary

Daily Weather History Graph

Daily Weather History Graph

Search for Another Location

Airport:

Trip Planner

Search our weather history database for the weather conditions in past years. The results will help you decide how hot, cold, wet, or windy it might be!

Date:

Astronomy

Feb. 05, 2014 Rise Set
Actual Time 7:14 AM MST 6:01 PM MST
Civil Twilight 6:49 AM MST 6:26 PM MST
Nautical Twilight 6:19 AM MST 6:55 PM MST
Astronomical Twilight 5:51 AM MST 7:24 PM MST
Moon 10:56 AM MST (2/5) No Moon Set
Length of Visible Light 11h 37m
Length of Day
10h 46m
Waxing Crescent, 40% of the Moon is Illuminated
Feb 5
Waxing Crescent
Feb 6
First Quarter
Feb 14
Full
Feb 22
Last Quarter
Mar 1
New

Hourly Weather History & Observations

Time (MST) Temp. Windchill Dew Point Humidity Pressure Visibility Wind Dir Wind Speed Gust Speed Precip Events Conditions
12:58 AM 38.8 °F 32.1 °F 27.3 °F 63% 30.03 in 10.0 mi SE 10.4 mph - N/A   Clear
1:58 AM 41.0 °F 35.8 °F 27.9 °F 60% 30.01 in 10.0 mi SE 8.1 mph - N/A   Overcast
2:58 AM 41.0 °F - 28.6 °F 61% 30.02 in 10.0 mi South 2.3 mph - N/A   Clear
3:58 AM 43.0 °F 39.5 °F 28.0 °F 56% 30.01 in 10.0 mi SE 5.8 mph - N/A   Partly Cloudy
4:58 AM 46.0 °F 43.1 °F 26.4 °F 46% 29.97 in 10.0 mi ESE 5.8 mph - N/A   Mostly Cloudy
5:58 AM 44.6 °F 43.1 °F 27.7 °F 52% 29.99 in 10.0 mi WSW 3.5 mph - N/A   Mostly Cloudy
6:58 AM 44.8 °F - 27.9 °F 52% 29.99 in 10.0 mi Calm Calm - N/A   Mostly Cloudy
7:58 AM 48.2 °F - 26.1 °F 42% 29.99 in 10.0 mi ESE 3.5 mph - N/A   Scattered Clouds
8:58 AM 49.3 °F - 26.2 °F 41% 29.99 in 10.0 mi SE 10.4 mph - N/A   Partly Cloudy
9:58 AM 53.1 °F - 26.4 °F 36% 30.00 in 10.0 mi East 8.1 mph - N/A   Scattered Clouds
10:58 AM 55.8 °F - 27.1 °F 33% 29.99 in 10.0 mi East 3.5 mph - N/A   Clear
11:58 AM 58.1 °F - 26.4 °F 30% 29.96 in 10.0 mi North 3.5 mph - N/A   Clear
12:58 PM 58.6 °F - 25.9 °F 29% 29.94 in 10.0 mi NW 9.2 mph - N/A   Scattered Clouds
1:58 PM 59.2 °F - 26.4 °F 29% 29.91 in 10.0 mi NW 8.1 mph - N/A   Mostly Cloudy
2:18 PM 60.8 °F - 26.6 °F 27% 29.94 in 10.0 mi NNW 13.8 mph - N/A   Scattered Clouds
2:58 PM 58.6 °F - 27.1 °F 30% 29.91 in 10.0 mi NNW 13.8 mph - N/A   Scattered Clouds
3:58 PM 57.7 °F - 26.2 °F 30% 29.89 in 10.0 mi NNW 10.4 mph - N/A   Partly Cloudy
4:58 PM 58.5 °F - 26.6 °F 30% 29.89 in 10.0 mi NNW 12.7 mph - N/A   Overcast
5:58 PM 56.8 °F - 26.1 °F 31% 29.91 in 10.0 mi NNW 12.7 mph - N/A   Overcast
6:58 PM 55.0 °F - 25.9 °F 33% 29.94 in 10.0 mi NW 11.5 mph - N/A   Overcast
7:58 PM 53.8 °F - 27.7 °F 37% 29.96 in 10.0 mi NW 8.1 mph - N/A   Overcast
8:58 PM 50.4 °F - 28.2 °F 42% 29.99 in 10.0 mi West 6.9 mph - N/A   Clear
9:58 PM 47.1 °F - 28.6 °F 49% 29.98 in 10.0 mi SW 6.9 mph - N/A   Clear
10:58 PM 45.1 °F 40.8 °F 28.2 °F 52% 30.00 in 10.0 mi SSW 8.1 mph - N/A   Clear
11:58 PM 42.3 °F - 27.9 °F 57% 29.99 in 10.0 mi ESE 2.3 mph - N/A   Clear